Weather in Krasnohorivka

Ukraine / Donetsk Region     48°00′34″N   37°30′43″E
temp.,
°C
wind,
m/s
gust,
m/s
humid.,
%
clouds,
%
prec.,
mm/h
press.,
hPa
HPBL,
m
13 april, tue
tue1300:00+10sw1283100 0.0 1022107
03:00+9wsw2386100 0.1 1022169
06:00+9nw2286100 0.1 1022138
09:00+9wsw2389100 0.7 1022174
12:00+9wsw2383100 0.4 1022306
15:00+13ssw236482 0.4 10221050
18:00+12s357392 0.0 1021371
21:00+9s238175 0.0 102265
14 april, wed
wed1400:00+8s238061 0.0 1021102
03:00+7w118398 0.0 102011
06:00+7nw1183100 0.0 101921
09:00+9nne2274100 0.0 1019222
12:00+9ene1182100 0.3 1018109
15:00+11nw2278100 1.6 1017223
18:00+13sw116616 0.0 1016385
21:00+10sse11772 0.0 101610
15 april, thu
thu1500:00+8sw2386100 0.0 101654
03:00+7ssw2387100 0.0 101660
06:00+7s2283100 0.0 101641
09:00+11sse357167 0.1 1016444
12:00+15s675286 0.0 10151570
15:00+13s5865100 0.1 1015741
18:00+13s587247 0.1 10151029
21:00+10s498749 0.2 1015376
16 april, fri
fri1600:00+8ssw48835 0.1 1015286
03:00+6sw378751 0.1 1016231
06:00+5sw378858 0.0 1017232
09:00+9sw35635 0.0 1017614
12:00+12sw464590 0.0 10171774
15:00+14sw564122 0.0 10161939
18:00+12w344586 0.0 10161203
21:00+10sw3561100 0.0 1018299
17 april, sat
sat1700:00+8sw367289 0.2 1018329
03:00+7sw367649 0.2 1019259
06:00+5w24855 0.0 1020127
09:00+9wsw34560 0.0 1020606
12:00+13wsw34425 0.0 10201599
15:00+14wsw3438100 0.0 10202149
18:00+13wnw334796 0.0 1020742
21:00+11nnw235727 0.0 1021210